Aspen, CO

1:00 PM MDT on July 27, 2017 (GMT -0600)
Aspen-Pitkin County / Sardy Field

Weather History for KASE - February, 2013

Change the Weather History Date:

Friday, February 15, 2013

  Actual Average Record
Temperature  
Mean Temperature 20 °F 22 °F  
Max Temperature 30 °F 35 °F 51 °F (1991)
Min Temperature 10 °F 9 °F 2 °F (1990)
Degree Days  
Heating Degree Days 45 43  
Month to date heating degree days 655 662  
Since 1 July heating degree days 5400 5784  
Cooling Degree Days 0 0  
Month to date cooling degree days 0 0  
Year to date cooling degree days 0 0  
Moisture  
Dew Point 10 °F    
Average Humidity 61    
Maximum Humidity 80    
Minimum Humidity 42    
Precipitation  
Precipitation T in 0.05 in 0.40 in (1984)
Month to date precipitation 0.22 0.64  
Year to date precipitation 0.73 1.67  
Sea Level Pressure  
Sea Level Pressure 30.34 in    
Wind  
Wind Speed 7 mph (North)    
Max Wind Speed 21 mph    
Max Gust Speed 30 mph    
Visibility 9 miles    
Events Snow    
T = Trace of Precipitation, MM = Missing Value Source: NWS Daily Summary

Daily Weather History Graph

Daily Weather History Graph

Search for Another Location

Airport or City:

Trip Planner

Search our weather history database for the weather conditions in past years. The results will help you decide how hot, cold, wet, or windy it might be!

Date:

Astronomy

Feb. 15, 2013 Rise Set
Actual Time 6:58 AM MST 5:44 PM MST
Civil Twilight 6:31 AM MST 6:12 PM MST
Nautical Twilight 6:00 AM MST 6:43 PM MST
Astronomical Twilight 5:29 AM MST 7:14 PM MST
Moon 9:39 AM MST (2/15) 11:45 PM MST (2/15)
Length of Visible Light 11h 40m
Length of Day
10h 46m
Waxing Crescent, 31% of the Moon is Illuminated
Feb 15
Waxing Crescent
Feb 17
First Quarter
Feb 25
Full
Mar 4
Last Quarter
Mar 11
New

Hourly Weather History & Observations

Time (MST) Temp. Windchill Dew Point Humidity Pressure Visibility Wind Dir Wind Speed Gust Speed Precip Events Conditions
12:53 AM 19.0 °F - 10.0 °F 68% 30.24 in 10.0 mi Calm Calm - N/A   Overcast
1:53 AM 19.9 °F 13.4 °F 10.9 °F 68% 30.24 in 10.0 mi NW 4.6 mph - N/A   Overcast
2:53 AM 21.0 °F 14.6 °F 10.0 °F 63% 30.23 in 10.0 mi North 4.6 mph - N/A   Overcast
3:53 AM 19.0 °F - 10.0 °F 68% 30.23 in 10.0 mi Calm Calm - N/A   Overcast
4:53 AM 17.1 °F - 9.0 °F 71% 30.26 in 10.0 mi Calm Calm - N/A   Overcast
5:24 AM 19.4 °F 11.5 °F 10.4 °F 68% 30.23 in 9.0 mi North 5.8 mph - 0.00 in   Overcast
5:32 AM 19.4 °F 10.4 °F 10.4 °F 68% 30.23 in 10.0 mi NNE 6.9 mph - 0.00 in   Overcast
5:53 AM 19.0 °F 11.1 °F 12.0 °F 74% 30.27 in 9.0 mi NNE 5.8 mph - 0.00 in   Overcast
6:53 AM 16.0 °F - 10.0 °F 77% 30.30 in 10.0 mi Calm Calm - N/A   Overcast
7:53 AM 19.0 °F 12.3 °F 12.0 °F 74% 30.32 in 6.0 mi North 4.6 mph - N/A   Overcast
8:42 AM 19.4 °F 12.8 °F 14.0 °F 80% 30.29 in 2.0 mi North 4.6 mph - 0.00 in Snow Light Snow
8:53 AM 19.9 °F 12.1 °F 14.0 °F 78% 30.34 in 1.5 mi NNE 5.8 mph - 0.00 in Snow Light Snow
9:15 AM 19.4 °F 11.5 °F 15.8 °F 86% 30.29 in 3.0 mi NNE 5.8 mph - 0.00 in Snow Light Snow
9:27 AM 19.4 °F 11.5 °F 14.0 °F 80% 30.30 in 6.0 mi NNE 5.8 mph - 0.00 in Snow Light Snow
9:53 AM 21.9 °F 13.4 °F 14.0 °F 72% 30.35 in 10.0 mi NNE 6.9 mph - 0.00 in   Mostly Cloudy
10:53 AM 25.0 °F 13.6 °F 12.9 °F 60% 30.35 in 7.0 mi North 12.7 mph - 0.00 in   Mostly Cloudy
11:53 AM 25.0 °F 13.6 °F 10.9 °F 55% 30.35 in 10.0 mi NNW 12.7 mph 18.4 mph N/A   Mostly Cloudy
12:53 PM 26.1 °F 14.0 °F 9.0 °F 49% 30.34 in 10.0 mi NNW 15.0 mph 21.9 mph N/A   Overcast
1:53 PM 28.9 °F 17.7 °F 10.0 °F 45% 30.32 in 10.0 mi NNW 15.0 mph 29.9 mph N/A   Mostly Cloudy
2:53 PM 28.9 °F 18.2 °F 8.1 °F 41% 30.32 in 10.0 mi NNW 13.8 mph 20.7 mph N/A   Mostly Cloudy
3:53 PM 28.0 °F 17.5 °F 9.0 °F 45% 30.35 in 10.0 mi NNW 12.7 mph 21.9 mph N/A   Scattered Clouds
4:53 PM 27.0 °F 17.3 °F 10.0 °F 49% 30.38 in 10.0 mi North 10.4 mph - N/A   Mostly Cloudy
5:53 PM 24.1 °F 18.2 °F 8.1 °F 51% 30.41 in 10.0 mi NNW 4.6 mph - N/A   Partly Cloudy
6:53 PM 19.9 °F 14.9 °F 8.1 °F 60% 30.48 in 10.0 mi North 3.5 mph - N/A   Partly Cloudy
7:53 PM 19.9 °F 10.1 °F 7.0 °F 57% 30.47 in 10.0 mi SW 8.1 mph - N/A   Partly Cloudy
8:53 PM 17.1 °F 10.0 °F 6.1 °F 62% 30.47 in 10.0 mi SSW 4.6 mph - N/A   Clear
9:53 PM 15.1 °F 6.4 °F 5.0 °F 64% 30.49 in 10.0 mi South 5.8 mph - N/A   Partly Cloudy
10:53 PM 12.9 °F 1.6 °F 3.9 °F 67% 30.48 in 10.0 mi SSW 8.1 mph - N/A   Clear
11:53 PM 10.9 °F 0.2 °F 3.0 °F 70% 30.49 in 10.0 mi SW 6.9 mph - N/A   Clear